H1 CPF 2 NER 2021 12 8 9 342 01 glonass133 H2 1403201 9133 40001 2021 12 8 0 0 0 2021 12 11 23 45 0 900 1 1 0 0 0 1 H9 10 0 59556 0.00000 0 -6519260.707 23707894.306 6738674.496 10 0 59556 900.00000 0 -6551811.390 24376189.782 3576088.735 10 0 59556 1800.00000 0 -6421779.779 24667952.538 343911.804 10 0 59556 2700.00000 0 -6182090.846 24560801.960 -2894956.842 10 0 59556 3600.00000 0 -5889410.493 24045641.326 -6077475.234 10 0 59556 4500.00000 0 -5601508.520 23127116.198 -9141695.398 10 0 59556 5400.00000 0 -5374580.752 21823511.641 -12027978.389 10 0 59556 6300.00000 0 -5260645.098 20166092.178 -14680163.197 10 0 59556 7200.00000 0 -5305123.064 18197912.170 -17046665.754 10 0 59556 8100.00000 0 -5544710.193 15972146.762 -19081486.092 10 0 59556 9000.00000 0 -6005626.338 13550013.689 -20745103.788 10 0 59556 9900.00000 0 -6702320.297 10998373.481 -22005244.226 10 0 59556 10800.00000 0 -7636683.850 8387108.727 -22837501.193 10 0 59556 11700.00000 0 -8797808.544 5786391.986 -23225804.296 10 0 59556 12600.00000 0 -10162295.490 3263956.297 -23162722.840 10 0 59556 13500.00000 0 -11695105.197 882481.535 -22649601.090 10 0 59556 14400.00000 0 -13350911.765 -1302795.347 -21696523.096 10 0 59556 15300.00000 0 -15075904.657 -3246147.793 -20322108.387 10 0 59556 16200.00000 0 -16809962.667 -4913020.239 -18553143.103 10 0 59556 17100.00000 0 -18489109.207 -6281214.397 -16424054.003 10 0 59556 18000.00000 0 -20048146.290 -7341553.553 -13976235.829 10 0 59556 18900.00000 0 -21423357.242 -8097999.153 -11257245.124 10 0 59556 19800.00000 0 -22555165.293 -8567216.717 -8319876.092 10 0 59556 20700.00000 0 -23390636.959 -8777610.993 -5221136.441 10 0 59556 21600.00000 0 -23885725.723 -8767872.493 -2021142.910 10 0 59556 22500.00000 0 -24007162.219 -8585097.739 1218042.199 10 0 59556 23400.00000 0 -23733911.944 -8282563.320 4433610.991 10 0 59556 24300.00000 0 -23058139.507 -7917248.207 7563223.359 10 0 59556 25200.00000 0 -21985639.031 -7547209.157 10546210.505 10 0 59556 26100.00000 0 -20535712.482 -7228920.019 13324745.466 10 0 59556 27000.00000 0 -18740500.709 -7014687.121 15844958.384 10 0 59556 27900.00000 0 -16643794.523 -6950249.640 18057975.424 10 0 59556 28800.00000 0 -14299374.773 -7072665.994 19920861.661 10 0 59556 29700.00000 0 -11768949.679 -7408575.362 21397450.277 10 0 59556 30600.00000 0 -9119774.210 -7972907.784 22459042.544 10 0 59556 31500.00000 0 -6422049.485 -8768097.681 23084965.372 10 0 59556 32400.00000 0 -3746209.067 -9783834.754 23262975.860 10 0 59556 33300.00000 0 -1160203.753 -10997363.971 22989504.979 10 0 59556 34200.00000 0 1273103.306 -12374323.515 22269735.304 10 0 59556 35100.00000 0 3498323.805 -13870087.179 21117510.703 10 0 59556 36000.00000 0 5469615.239 -15431556.563 19555078.839 10 0 59556 36900.00000 0 7152349.817 -16999329.358 17612670.484 10 0 59556 37800.00000 0 8524312.102 -18510153.959 15327922.691 10 0 59556 38700.00000 0 9576375.598 -19899568.189 12745155.945 10 0 59556 39600.00000 0 10312630.087 -21104611.569 9914518.527 10 0 59556 40500.00000 0 10749954.641 -22066496.961 6891014.097 10 0 59556 41400.00000 0 10917054.635 -22733128.585 3733431.131 10 0 59556 42300.00000 0 10853003.817 -23061359.377 503195.286 10 0 59556 43200.00000 0 10605353.760 -23018891.424 -2736832.523 10 0 59556 44100.00000 0 10227891.540 -22585738.074 -5923588.096 10 0 59556 45000.00000 0 9778141.668 -21755184.896 -8995040.882 10 0 59556 45900.00000 0 9314719.286 -20534207.953 -11891410.690 10 0 59556 46800.00000 0 8894648.020 -18943330.995 -14556339.426 10 0 59556 47700.00000 0 8570757.251 -17015927.102 -16937994.054 10 0 59556 48600.00000 0 8389270.029 -14796993.966 -18990078.738 10 0 59556 49500.00000 0 8387684.443 -12341454.152 -20672736.142 10 0 59556 50400.00000 0 8593038.506 -9712051.804 -21953320.361 10 0 59556 51300.00000 0 9020632.068 -6976933.896 -22807026.821 10 0 59556 52200.00000 0 9673259.654 -4207017.110 -23217367.499 10 0 59556 53100.00000 0 10540986.416 -1473250.135 -23176482.970 10 0 59556 54000.00000 0 11601476.318 1156114.983 -22685286.033 10 0 59556 54900.00000 0 12820858.546 3618129.536 -21753434.921 10 0 59556 55800.00000 0 14155095.443 5857525.362 -20399137.276 10 0 59556 56700.00000 0 15551794.388 7828764.978 -18648789.238 10 0 59556 57600.00000 0 16952387.535 9497680.848 -16536456.989 10 0 59556 58500.00000 0 18294587.944 10842637.191 -14103211.047 10 0 59556 59400.00000 0 19515019.181 11855167.734 -11396326.306 10 0 59556 60300.00000 0 20551908.246 12540064.691 -8468363.266 10 0 59556 61200.00000 0 21347728.973 12914917.009 -5376148.310 10 0 59556 62100.00000 0 21851685.228 13009118.924 -2179672.666 10 0 59556 63000.00000 0 22021929.788 12862391.904 1059068.716 10 0 59556 63900.00000 0 21827425.928 12522883.236 4277275.905 10 0 59556 64800.00000 0 21249373.587 12044922.114 7412557.277 10 0 59556 65700.00000 0 20282140.160 11486528.270 10404134.089 10 0 59556 66600.00000 0 18933656.637 10906778.332 13194013.148 10 0 59556 67500.00000 0 17225261.997 10363140.907 15728105.323 10 0 59556 68400.00000 0 15191001.646 9908892.512 17957268.673 10 0 59556 69300.00000 0 12876408.348 9590722.963 19838256.454 10 0 59556 70200.00000 0 10336815.382 9446630.862 21334552.262 10 0 59556 71100.00000 0 7635270.911 9504197.647 22417076.653 10 0 59556 72000.00000 0 4840139.078 9779312.972 23064751.905 10 0 59556 72900.00000 0 2022486.106 10275405.408 23264914.258 10 0 59556 73800.00000 0 -746641.375 10983211.553 23013565.597 10 0 59556 74700.00000 0 -3398933.894 11881094.266 22315459.394 10 0 59556 75600.00000 0 -5871420.833 12935897.940 21184018.648 10 0 59556 76500.00000 0 -8108848.981 14104306.262 19641086.566 10 0 59556 77400.00000 0 -10065739.517 15334646.784 17716513.780 10 0 59556 78300.00000 0 -11708038.164 16569067.649 15447589.040 10 0 59556 79200.00000 0 -13014289.887 17745995.840 12878323.320 10 0 59556 80100.00000 0 -13976289.068 18802773.966 10058600.399 10 0 59556 81000.00000 0 -14599178.085 19678364.561 7043209.806 10 0 59556 81900.00000 0 -14900990.368 20316007.483 3890780.610 10 0 59556 82800.00000 0 -14911657.460 20665717.452 662637.033 10 0 59556 83700.00000 0 -14671522.575 20686515.203 -2578401.407 10 0 59556 84600.00000 0 -14229424.209 20348296.715 -5769251.031 10 0 59556 85500.00000 0 -13640431.791 19633260.276 -8847801.332 10 0 59557 0.00000 0 -12963330.422 18536829.983 -11754133.057 10 0 59557 900.00000 0 -12257961.988 17068035.027 -14431693.772 10 0 59557 1800.00000 0 -11582537.236 15249329.535 -16828403.184 10 0 59557 2700.00000 0 -10991032.380 13115858.034 -18897671.283 10 0 59557 3600.00000 0 -10530781.933 10714198.448 -20599305.249 10 0 59557 4500.00000 0 -10240369.627 8100634.745 -21900289.027 10 0 59557 5400.00000 0 -10147906.641 5339031.543 -22775420.534 10 0 59557 6300.00000 0 -10269769.624 2498399.406 -23207794.678 10 0 59557 7200.00000 0 -10609851.294 -349747.676 -23189123.549 10 0 59557 8100.00000 0 -11159354.629 -3134132.863 -22719888.365 10 0 59557 9000.00000 0 -11897138.699 -5786441.664 -21809321.044 10 0 59557 9900.00000 0 -12790600.992 -8243919.084 -20475216.419 10 0 59557 10800.00000 0 -13797058.617 -10451731.878 -18743579.292 10 0 59557 11700.00000 0 -14865569.958 -12364998.969 -16648113.532 10 0 59557 12600.00000 0 -15939119.937 -13950406.969 -14229563.350 10 0 59557 13500.00000 0 -16957076.936 -15187345.204 -11534919.616 10 0 59557 14400.00000 0 -17857818.091 -16068514.611 -8616506.551 10 0 59557 15300.00000 0 -18581412.637 -16599986.772 -5530966.511 10 0 59557 16200.00000 0 -19072250.590 -16800712.286 -2338162.431 10 0 59557 17100.00000 0 -19281506.321 -16701500.556 899980.911 10 0 59557 18000.00000 0 -19169333.497 -16343515.062 4120674.380 10 0 59557 18900.00000 0 -18706699.109 -15776348.324 7261477.660 10 0 59557 19800.00000 0 -17876779.339 -15055758.186 10261504.843 10 0 59557 20700.00000 0 -16675858.374 -14241161.034 13062599.216 10 0 59557 21600.00000 0 -15113691.917 -13392987.531 15610454.932 10 0 59557 22500.00000 0 -13213319.389 -12570012.020 17855664.277 10 0 59557 23400.00000 0 -11010331.707 -11826767.630 19754670.740 10 0 59557 24300.00000 0 -8551623.969 -11211155.474 21270610.016 10 0 59557 25200.00000 0 -5893683.615 -10762348.069 22374023.217 10 0 59557 26100.00000 0 -3100483.867 -10509074.900 23043428.820 10 0 59557 27000.00000 0 -241068.424 -10468362.126 23265742.579 10 0 59557 27900.00000 0 2613073.813 -10644779.634 23036537.238 10 0 59557 28800.00000 0 5390736.320 -11030227.605 22360136.690 10 0 59557 29700.00000 0 8023712.836 -11604272.354 21249542.223 10 0 59557 30600.00000 0 10449393.678 -12335018.342 19726191.376 10 0 59557 31500.00000 0 12613133.130 -13180480.777 17819553.116 10 0 59557 32400.00000 0 14470289.852 -14090402.082 15566566.039 10 0 59557 33300.00000 0 15987855.402 -15008436.608 13010929.435 10 0 59557 34200.00000 0 17145602.850 -15874612.067 10202260.107 10 0 59557 35100.00000 0 17936707.383 -16627964.027 7195130.687 10 0 59557 36000.00000 0 18367812.904 -17209231.953 4048007.845 10 0 59557 36900.00000 0 18458541.912 -17563502.249 822111.217 10 0 59557 37800.00000 0 18240469.704 -17642685.507 -2419784.281 10 0 59557 38700.00000 0 17755606.712 -17407721.980 -5614578.644 10 0 59557 39600.00000 0 17054453.881 -16830420.601 -8700084.417 10 0 59557 40500.00000 0 16193714.289 -15894852.456 -11616246.580 10 0 59557 41400.00000 0 15233758.856 -14598238.564 -14306319.845 10 0 59557 42300.00000 0 14235954.429 -12951293.464 -16717979.440 10 0 59557 43200.00000 0 13259968.188 -10978009.294 -18804343.112 10 0 59557 44100.00000 0 12361163.010 -8714888.812 -20524884.152 10 0 59557 45000.00000 0 11588194.274 -6209659.218 -21846217.610 10 0 59557 45900.00000 0 10980909.572 -3519520.408 -22742744.775 10 0 59557 46800.00000 0 10568639.641 -709000.659 -23197143.987 10 0 59557 47700.00000 0 10368951.952 2152490.868 -23200698.946 10 0 59557 48600.00000 0 10386918.631 4993313.136 -22753459.010 10 0 59557 49500.00000 0 10614928.593 7742333.984 -21864229.126 10 0 59557 50400.00000 0 11033050.814 10331649.189 -20550390.308 10 0 59557 51300.00000 0 11609932.533 12699167.675 -18837554.674 10 0 59557 52200.00000 0 12304193.839 14790956.490 -16759062.098 10 0 59557 53100.00000 0 13066259.313 16563249.137 -14355328.490 10 0 59557 54000.00000 0 13840549.212 17984035.129 -11673058.392 10 0 59557 54900.00000 0 14567937.714 19034165.987 -8764337.146 10 0 59557 55800.00000 0 15188374.532 19707933.022 -5685620.227 10 0 59557 56700.00000 0 15643559.516 20013094.299 -2496639.236 10 0 59557 57600.00000 0 15879557.566 19970351.070 740754.384 10 0 59557 58500.00000 0 15849243.776 19612296.851 3963785.462 10 0 59557 59400.00000 0 15514475.815 18981884.276 7109968.071 10 0 59557 60300.00000 0 14847901.977 18130474.863 10118312.051 10 0 59557 61200.00000 0 13834328.574 17115554.085 12930499.843 10 0 59557 62100.00000 0 12471588.739 15998207.932 15492011.278 10 0 59557 63000.00000 0 10770875.374 14840466.906 17753174.980 10 0 59557 63900.00000 0 8756523.357 13702628.729 19670126.471 10 0 59557 64800.00000 0 6465248.788 12640671.747 21205655.041 10 0 59557 65700.00000 0 3944875.514 11703867.088 22329923.527 10 0 59557 66600.00000 0 1252600.415 10932689.327 23021047.435 10 0 59557 67500.00000 0 -1547132.134 10357112.931 23265522.481 10 0 59557 68400.00000 0 -4385059.995 9995365.809 23058492.280 10 0 59557 69300.00000 0 -7189737.835 9853192.331 22403850.708 10 0 59557 70200.00000 0 -9890268.520 9923657.094 21314176.388 10 0 59557 71100.00000 0 -12419019.074 10187498.209 19810499.740 10 0 59557 72000.00000 0 -14714209.025 10614015.981 17921906.115 10 0 59557 72900.00000 0 -16722263.950 11162460.352 15684981.574 10 0 59557 73800.00000 0 -18399836.371 11783859.337 13143110.993 10 0 59557 74700.00000 0 -19715409.479 12423211.861 10345641.222 10 0 59557 75600.00000 0 -20650416.494 13021952.618 7346924.904 10 0 59557 76500.00000 0 -21199828.527 13520584.623 4205263.182 10 0 59557 77400.00000 0 -21372186.082 13861367.572 981768.037 10 0 59557 78300.00000 0 -21189072.968 13990947.305 -2260833.178 10 0 59557 79200.00000 0 -20684055.043 13862813.880 -5459426.958 10 0 59557 80100.00000 0 -19901129.134 13439482.781 -8551751.563 10 0 59557 81000.00000 0 -18892748.386 12694305.564 -11477618.432 10 0 59557 81900.00000 0 -17717508.412 11612831.913 -14180092.201 10 0 59557 82800.00000 0 -16437592.995 10193664.395 -16606605.340 10 0 59557 83700.00000 0 -15116088.197 8448768.788 -18709985.048 10 0 59557 84600.00000 0 -13814278.974 6403226.084 -20449372.097 10 0 59557 85500.00000 0 -12589042.863 4094436.021 -21791013.653 10 0 59558 0.00000 0 -11490450.778 1570805.345 -22708914.977 10 0 59558 900.00000 0 -10559675.139 -1110026.053 -23185338.309 10 0 59558 1800.00000 0 -9827294.172 -3883343.793 -23211138.822 10 0 59558 2700.00000 0 -9312060.812 -6679817.280 -22785933.615 10 0 59558 3600.00000 0 -9020188.266 -9428152.265 -21918099.926 10 0 59558 4500.00000 0 -8945180.399 -12057829.090 -20624603.854 10 0 59558 5400.00000 0 -9068212.854 -14501813.216 -18930663.407 10 0 59558 6300.00000 0 -9359047.678 -16699126.179 -16869252.735 10 0 59558 7200.00000 0 -9777441.903 -18597170.941 -14480457.438 10 0 59558 8100.00000 0 -10274989.970 -20153715.997 -11810693.523 10 0 59558 9000.00000 0 -10797321.740 -21338456.834 -8911805.099 10 0 59558 9900.00000 0 -11286563.081 -22134090.802 -5840058.319 10 0 59558 10800.00000 0 -11683955.035 -22536861.863 -2655050.957 10 0 59558 11700.00000 0 -11932521.014 -22556553.675 581441.371 10 0 59558 12600.00000 0 -11979669.482 -22215932.404 3806659.968 10 0 59558 13500.00000 0 -11779622.353 -21549663.621 6958075.813 10 0 59558 14400.00000 0 -11295566.645 -20602749.446 9974596.997 10 0 59558 15300.00000 0 -10501438.538 -19428551.989 12797747.591 10 0 59558 16200.00000 0 -9383264.399 -18086486.294 15372795.506 10 0 59558 17100.00000 0 -7940001.702 -16639479.475 17649807.965 10 0 59558 18000.00000 0 -6183843.696 -15151302.378 19584614.591 10 0 59558 18900.00000 0 -4139973.815 -13683885.120 21139660.065 10 0 59558 19800.00000 0 -1845778.572 -12294728.394 22284730.430 10 0 59558 20700.00000 0 650449.833 -11034518.353 22997539.329 10 0 59558 21600.00000 0 3291269.034 -9945044.325 23264163.169 10 0 59558 22500.00000 0 6012228.921 -9057506.069 23079316.779 10 0 59558 23400.00000 0 8744313.666 -8391281.201 22446463.961 10 0 59558 24300.00000 0 11416583.442 -7953204.341 21377760.253 10 0 59558 25200.00000 0 13958907.405 -7737388.342 19893828.172 10 0 59558 26100.00000 0 16304675.197 -7725595.431 18023368.311 10 0 59558 27000.00000 0 18393374.721 -7888143.084 15802612.701 10 0 59558 27900.00000 0 20172929.026 -8185306.925 13274629.940 10 0 59558 28800.00000 0 21601694.578 -8569161.851 10488494.697 10 0 59558 29700.00000 0 22650037.104 -8985783.806 7498337.028 10 0 59558 30600.00000 0 23301418.563 -9377718.961 4362289.626 10 0 59558 31500.00000 0 23552949.192 -9686615.378 1141353.631 10 0 59558 32400.00000 0 23415381.186 -9855904.858 -2101794.522 10 0 59558 33300.00000 0 22912544.216 -9833420.278 -5304031.222 10 0 59558 34200.00000 0 22080246.807 -9573836.168 -8403023.759 10 0 59558 35100.00000 0 20964690.395 -9040827.728 -11338453.148 10 0 59558 36000.00000 0 19620463.729 -8208855.430 -14053196.792 10 0 59558 36900.00000 0 18108203.080 -7064498.418 -16494446.913 10 0 59558 37800.00000 0 16492017.841 -5607279.213 -18614742.323 10 0 59558 38700.00000 0 14836790.804 -3849943.946 -20372893.067 10 0 59558 39600.00000 0 13205467.388 -1818185.634 -21734779.876 10 0 59558 40500.00000 0 11656448.117 450178.493 -22674013.193 10 0 59558 41400.00000 0 10241193.781 2906541.585 -23172439.549 10 0 59558 42300.00000 0 9002143.378 5493298.117 -23220486.140 10 0 59558 43200.00000 0 7971031.251 8146016.785 -22817337.781 10 0 59558 44100.00000 0 7167672.797 10795905.088 -21970943.581 10 0 59558 45000.00000 0 6599268.251 13372463.294 -20697853.941 10 0 59558 45900.00000 0 6260252.162 15806217.903 -19022891.583 10 0 59558 46800.00000 0 6132693.293 18031421.460 -16978663.392 10 0 59558 47700.00000 0 6187226.709 19988607.103 -14604922.754 10 0 59558 48600.00000 0 6384477.533 21626892.311 -11947794.880 10 0 59558 49500.00000 0 6676915.409 22905936.877 -9058880.054 10 0 59558 50400.00000 0 7011060.742 23797474.333 -5994252.222 10 0 59558 51300.00000 0 7329949.145 24286354.007 -2813372.207 10 0 59558 52200.00000 0 7575749.779 24371051.136 422063.480 10 0 59558 53100.00000 0 7692426.909 24063624.635 3649315.948 10 0 59558 54000.00000 0 7628332.249 23389125.153 6805816.359 10 0 59558 54900.00000 0 7338618.636 22384478.857 9830374.194 10 0 59558 55800.00000 0 6787373.124 21096894.174 12664358.065 10 0 59558 56700.00000 0 5949379.339 19581858.485 15252826.613 10 0 59558 57600.00000 0 4811434.419 17900808.613 17545588.006 10 0 59558 58500.00000 0 3373164.485 16118572.420 19498167.989 10 0 59558 59400.00000 0 1647303.329 14300688.069 21072668.341 10 0 59558 60300.00000 0 -340578.709 12510712.396 22238499.668 10 0 59558 61200.00000 0 -2552885.946 10807630.235 22972974.754 10 0 59558 62100.00000 0 -4941316.613 9243472.166 23261751.302 10 0 59558 63000.00000 0 -7448637.136 7861239.526 23099115.521 10 0 59558 63900.00000 0 -10010839.381 6693222.872 22488100.829 10 0 59558 64800.00000 0 -12559592.901 5759783.789 21440438.847 10 0 59558 65700.00000 0 -15024891.671 5068650.812 19976342.822 10 0 59558 66600.00000 0 -17337786.224 4614758.959 18124126.694 10 0 59558 67500.00000 0 -19433088.202 4380639.698 15919666.071 10 0 59558 68400.00000 0 -21251934.877 4337345.106 13405710.466 10 0 59558 69300.00000 0 -22744106.425 4445867.471 10631059.236 10 0 59558 70200.00000 0 -23869998.731 4658994.458 7649616.518 10 0 59558 71100.00000 0 -24602168.475 4923521.245 4519343.136 10 0 59558 72000.00000 0 -24926385.001 5182725.653 1301125.984 10 0 59558 72900.00000 0 -24842144.181 5379000.623 -1942412.728 10 0 59558 73800.00000 0 -24362622.251 5456531.492 -5148142.442 10 0 59558 74700.00000 0 -23514071.383 5363903.296 -8253662.452 10 0 59558 75600.00000 0 -22334682.636 5056526.199 -11198526.102 10 0 59558 76500.00000 0 -20872964.604 4498774.840 -13925426.061 10 0 59558 77400.00000 0 -19185706.776 3665749.684 -16381316.507 10 0 59558 78300.00000 0 -17335614.148 2544584.682 -18518449.709 10 0 59558 79200.00000 0 -15388713.359 1135244.973 -20295306.431 10 0 59558 80100.00000 0 -13411640.100 -549219.789 -21677401.946 10 0 59558 81000.00000 0 -11468922.028 -2482977.769 -22637952.333 10 0 59558 81900.00000 0 -9620371.191 -4628260.799 -23158388.615 10 0 59558 82800.00000 0 -7918694.891 -6936718.578 -23228709.501 10 0 59558 83700.00000 0 -6407424.242 -9351224.940 -22847666.690 10 0 59558 84600.00000 0 -5119245.919 -11808061.100 -22022779.968 10 0 59558 85500.00000 0 -4074805.525 -14239385.036 -20770182.503 10 0 59559 0.00000 0 -3282030.978 -16575884.351 -19114300.094 10 0 59559 900.00000 0 -2736002.111 -18749503.782 -17087370.009 10 0 59559 1800.00000 0 -2419371.199 -20696131.126 -14728811.335 10 0 59559 2700.00000 0 -2303313.667 -22358134.493 -12084456.134 10 0 59559 3600.00000 0 -2348968.699 -23686642.629 -9205658.448 10 0 59559 4500.00000 0 -2509307.448 -24643475.127 -6148297.576 10 0 59559 5400.00000 0 -2731349.313 -25202642.516 -2971694.987 10 0 59559 6300.00000 0 -2958632.164 -25351354.253 262534.283 10 0 59559 7200.00000 0 -3133831.877 -25090493.186 3491673.465 10 0 59559 8100.00000 0 -3201420.369 -24434537.241 6653116.170 10 0 59559 9000.00000 0 -3110249.800 -23410932.139 9685575.484 10 0 59559 9900.00000 0 -2815953.791 -22058941.739 12530266.722 10 0 59559 10800.00000 0 -2283064.273 -20428024.265 15132041.322 10 0 59559 11700.00000 0 -1486754.416 -18575802.269 17440450.353 10 0 59559 12600.00000 0 -414133.860 -16565710.925 19410717.469 10 0 59559 13500.00000 0 934959.048 -14464422.402 21004603.108 10 0 59559 14400.00000 0 2547702.344 -12339153.131 22191143.738 10 0 59559 15300.00000 0 4398584.941 -10254965.565 22947252.284 10 0 59559 16200.00000 0 6450239.924 -8272176.088 23258168.420 10 0 59559 17100.00000 0 8654783.722 -6443976.275 23117750.089 10 0 59559 18000.00000 0 10955607.166 -4814366.006 22528600.348 10 0 59559 18900.00000 0 13289545.646 -3416484.027 21502026.617 10 0 59559 19800.00000 0 15589339.616 -2271405.189 20057832.272 10 0 59559 20700.00000 0 17786284.155 -1387454.416 18223943.690 10 0 59559 21600.00000 0 19812958.057 -760065.967 16035878.835 10 0 59559 22500.00000 0 21605919.034 -372193.801 13536066.588 10 0 59559 23400.00000 0 23108252.375 -195255.822 10773029.108 10 0 59559 24300.00000 0 24271866.050 -190572.046 7800442.377 10 0 59559 25200.00000 0 25059435.442 -311235.777 4676092.779 10 0 59559 26100.00000 0 25445915.198 -504338.224 1460750.096 10 0 59559 27000.00000 0 25419553.826 -713451.657 -1783020.771 10 0 59559 27900.00000 0 24982367.610 -881264.935 -4992085.528 10 0 59559 28800.00000 0 24150053.318 -952258.486 -8103978.676 10 0 59559 29700.00000 0 22951343.160 -875303.995 -11058128.985 10 0 59559 30600.00000 0 21426829.208 -606077.198 -13797047.265 10 0 59559 31500.00000 0 19627307.109 -109180.259 -16267452.244 10 0 59559 32400.00000 0 17611709.344 640117.332 -18421311.918 10 0 59559 33300.00000 0 15444715.484 1654593.973 -20216779.719 10 0 59559 34200.00000 0 13194140.439 2934302.287 -21619007.112 10 0 59559 35100.00000 0 10928210.603 4466339.833 -22600817.142 10 0 59559 36000.00000 0 8712842.134 6225174.292 -23143226.371 10 0 59559 36900.00000 0 6609035.036 8173509.787 -23235805.737 10 0 59559 37800.00000 0 4670491.365 10263658.270 -22876874.212 10 0 59559 38700.00000 0 2941556.015 12439358.893 -22073522.266 10 0 59559 39600.00000 0 1455564.754 14637969.447 -20841465.455 10 0 59559 40500.00000 0 233666.855 16792938.731 -19204731.524 10 0 59559 41400.00000 0 -715830.352 18836456.973 -17195187.519 10 0 59559 42300.00000 0 -1397569.452 20702174.083 -14851916.331 10 0 59559 43200.00000 0 -1828700.849 22327872.756 -12220454.852 10 0 59559 44100.00000 0 -2037910.916 23657985.365 -9351908.486 10 0 59559 45000.00000 0 -2063962.720 24645849.960 -6301959.171 10 0 59559 45900.00000 0 -1953812.014 25255611.666 -3129786.017 10 0 59559 46800.00000 0 -1760378.849 25463690.473 103080.601 10 0 59559 47700.00000 0 -1540069.399 25259754.453 3333949.331 10 0 59559 48600.00000 0 -1350153.056 24647158.126 6500179.551 10 0 59559 49500.00000 0 -1246105.700 23642827.882 9540391.192 10 0 59559 50400.00000 0 -1279031.395 22276599.465 12395649.365 10 0 59559 51300.00000 0 -1493271.335 20590035.220 15010601.202 10 0 59559 52200.00000 0 -1924301.033 18634770.326 17334543.311 10 0 59559 53100.00000 0 -2597004.503 16470456.767 19322399.621 10 0 59559 54000.00000 0 -3524398.610 14162390.205 20935591.298 10 0 59559 54900.00000 0 -4706861.945 11778917.952 22142782.432 10 0 59559 55800.00000 0 -6131901.659 9388735.176 22920487.488 10 0 59559 56700.00000 0 -7774469.460 7058180.952 23253529.133 10 0 59559 57600.00000 0 -9597815.193 4848645.711 23135337.623 10 0 59559 58500.00000 0 -11554844.125 2814197.159 22568085.756 10 0 59559 59400.00000 0 -13589923.056 999522.710 21562656.308 10 0 59559 60300.00000 0 -15641061.626 -561726.474 20138441.790 10 0 59559 61200.00000 0 -17642379.119 -1848121.158 18322979.442 10 0 59559 62100.00000 0 -19526754.882 -2851120.210 16151427.466 10 0 59559 63000.00000 0 -21228552.252 -3575189.640 13665891.484 10 0 59559 63900.00000 0 -22686302.125 -4037369.599 10914613.415 10 0 59559 64800.00000 0 -23845233.534 -4266307.799 7951037.728 10 0 59559 65700.00000 0 -24659544.414 -4300800.379 4832772.808 10 0 59559 66600.00000 0 -25094316.240 -4187902.266 1620467.675 10 0 59559 67500.00000 0 -25126990.993 -3980687.635 -1623373.738 10 0 59559 68400.00000 0 -24748347.246 -3735756.221 -4835616.964 10 0 59559 69300.00000 0 -23962933.353 -3510592.242 -7953735.143 10 0 59559 70200.00000 0 -22788938.868 -3360889.180 -10917035.698 10 0 59559 71100.00000 0 -21257509.223 -3337955.172 -13667850.562 10 0 59559 72000.00000 0 -19411532.511 -3486310.232 -16152665.677 10 0 59559 72900.00000 0 -17303949.609 -3841578.261 -18323167.055 10 0 59559 73800.00000 0 -14995659.003 -4428763.998 -20137182.611 10 0 59559 74700.00000 0 -12553104.734 -5260988.475 -21559501.281 10 0 59559 75600.00000 0 -10045648.868 -6338736.867 -22562553.780 10 0 59559 76500.00000 0 -7542838.584 -7649650.799 -23126942.306 10 0 59559 77400.00000 0 -5111682.055 -9168874.015 -23241809.563 10 0 59559 78300.00000 0 -2814046.335 -10859937.031 -22905040.796 10 0 59559 79200.00000 0 -704284.923 -12676143.778 -22123295.723 10 0 59559 80100.00000 0 1172807.180 -14562402.217 -20911870.472 10 0 59559 81000.00000 0 2783627.233 -16457422.472 -19294392.786 10 0 59559 81900.00000 0 4106920.957 -18296190.760 -17302356.843 10 0 59559 82800.00000 0 5134414.761 -20012615.888 -14974506.953 10 0 59559 83700.00000 0 5870899.566 -21542237.990 -12356082.198 10 0 59559 84600.00000 0 6333764.673 -22824886.583 -9497936.629 10 0 59559 85500.00000 0 6552002.910 -23807177.062 -6455552.073 99